Regional Weather Roundup
Issued by NWS

Home | Current Version | Previous Version | Graphics & Text | Print | Product List | Glossary On
Versions: 1 2 3 4 5 6 7 8 9 10 11 12 13 14 15 16 17 18 19 20 21 22 23 24 25 26 27 28 29 30 31 32 33 34 35 36 37 38 39 40 41 42 43 44 45 46 47 48 49 50
760
ASUS45 KCYS 050710
RWRWY

WYOMING REGIONAL WEATHER ROUNDUP
NATIONAL WEATHER SERVICE CHEYENNE WY
1200 AM MST MON DEC 05 2016

NOTE:  "FAIR" INDICATES FEW OR NO CLOUDS BELOW 12,000 FEET
WITH NO SIGNIFICANT WEATHER AND/OR OBSTRUCTIONS TO VISIBILITY.

WYZ001-050800-
YELLOWSTONE NATIONAL PARK

CITY           SKY/WX    TMP DP  RH WIND       PRES   REMARKS
LK YELLOWSTONE   N/A     23  18  81 W10G21    29.54F WCI  12
W YELLOWSTONE  NOT AVBL

$$
WYZ002>013-054>058-071-098>099-050800-
NORTHERN WYOMING

CITY           SKY/WX    TMP DP  RH WIND       PRES   REMARKS
JACKSON        CLOUDY    28  28 100 S23       29.59S VSB 3/4 WCI  14
CODY           FLURRIES  27  24  89 N14       29.57R WCI  16
GREYBULL       LGT SNOW  33  27  78 NW14      29.53S WCI  23
WORLAND        FAIR      26  22  84 N3        29.51R
SHERIDAN       FLURRIES  31  28  89 NW16      29.60R WCI  20
BUFFALO        LGT SNOW  31  27  85 N25G35    29.55R VSB 3/4 WCI  17
GILLETTE       CLOUDY    37  23  56 SW13      29.50S WCI  29
HULETT         CLOUDY    36  27  69 S9        29.50F WCI  29
NEWCASTLE      FAIR      36  21  55 SE7       29.56S WCI  30

$$
WYZ014>020-022>026-101>103-050800-
CENTRAL WYOMING

CITY           SKY/WX    TMP DP  RH WIND       PRES   REMARKS
BIG PINEY      CLOUDY    27  26  96 SW10      29.67F WCI  17
PINEDALE       CLOUDY    28  27  93 MISG      29.66F
DUBOIS         LGT SNOW  28  23  80 NW12G21   29.51F WCI  18
LANDER         FAIR      34  27  75 SW21G30   29.54F WCI  22
RIVERTON       FAIR      33  23  66 SW12      29.55F WCI  24
CASPER         LGT RAIN  40  23  50 SW37G46   29.56F WCI  27
DOUGLAS        MOCLDY    42  21  43 W25G33    29.56F

$$
WYZ021-027>030-104>119-050800-
SOUTHERN WYOMING

CITY           SKY/WX    TMP DP  RH WIND       PRES   REMARKS
EVANSTON       LGT SNOW  30  28  92 SW15      29.76F VSB 1   WCI  19
KEMMERER       LGT SNOW  30  28  93 SW20G28   29.72F VSB 3/4 WCI  18
FORT BRIDGER   CLOUDY    32  32 100 W14G23    29.77S WCI  22
ROCK SPRINGS   MOCLDY    31  24  75 SW16      29.72S WCI  20
DIXON          CLOUDY    35  15  43 SW15G21   29.78F WCI  25
RAWLINS        MOCLDY    33  17  51 SW33G46   29.69F WCI  18
SARATOGA       FAIR      32  19  59 SW18G26   29.72F WCI  20
LARAMIE        CLOUDY    33  17  51 S10       29.71F WCI  25
CHEYENNE       FAIR      38  18  44 S5        29.66F WCI  34
TORRINGTON     FAIR      46  19  34 SW10G16   29.60F
PINE BLUFFS    FAIR      34  18  51 CALM      29.68S

$$




USA.gov is the U.S. government's official web portal to all federal, state and local government web resources and services.